Location: La Peine
(44.0907°N, 6.3913°E)
Time: 22:44:47
(UTC+00:00)

Daily predictions for brighter satellites

Satellite Brightness Start Highest point End
(mag) Time Altitude Azimuth Time Altitude Azimuth Time Altitude Azimuth
CZ-2C R/B 4.2 19:27:02 10° S 19:32:12 50° W 19:37:40 10° NNW
STARLINK-1135 3.9 19:30:03 10° NW 19:34:11 64° NNE 19:38:17 10° ESE
Cosmos 1464 Rocket 4.1 19:28:27 10° N 19:34:51 79° E 19:41:14 10° S
STARLINK-1141 3.8 19:35:02 10° NW 19:39:11 69° NNE 19:43:19 10° ESE
Aureole 1 Rocket 4.4 19:37:56 10° N 19:41:22 26° ENE 19:45:34 10° ESE
STARLINK-1211 4.4 19:40:08 10° SSW 19:43:43 29° SE 19:47:19 10° ENE
STARLINK-1140 3.7 19:40:00 10° NW 19:44:09 74° NNE 19:48:17 10° ESE
Cosmos 1703 Rocket 3.9 19:43:22 10° SSE 19:47:27 43° E 19:51:34 10° NNE
STARLINK-1245 4.3 19:45:01 10° SSW 19:48:41 31° SE 19:52:22 10° ENE
Cosmos 614 Rocket 4.3 19:44:09 10° NNW 19:49:07 52° ENE 19:54:04 10° SE
STARLINK-1156 3.7 19:44:59 10° NW 19:49:09 80° NNE 19:53:17 10° ESE
TELKOM 3 2.8 19:47:28 10° WNW 19:49:33 68° NNE 19:51:39 11° ESE
DMSP B5D2-2 4.2 19:47:16 10° NNE 19:52:36 90° WNW 19:57:53 10° SSW
STARLINK-1233 4.2 19:49:52 10° SSW 19:53:37 34° SE 19:57:23 10° ENE
STARLINK-1148 3.6 19:49:58 10° NW 19:54:07 86° NE 19:58:04 11° SE
Cosmos 1743 2.8 19:50:46 10° N 19:54:32 59° E 19:58:17 10° SSE
Cosmos 2251 Rocket 4.2 19:49:43 10° NNW 19:54:48 53° WSW 19:59:52 10° S
STARLINK-1087 2.4 19:53:14 10° NW 19:55:13 47° NNE 19:56:51 13° ESE
Cosmos 1544 4.2 19:53:45 10° NNE 19:56:56 28° ENE 19:59:45 12° SE
Cosmos 2082 Rocket 4.1 19:53:24 10° N 19:57:09 17° NE 20:00:53 10° E
STARLINK-1204 4.1 19:54:45 10° SSW 19:58:35 37° SE 20:02:25 10° ENE
STARLINK-1158 3.6 19:54:57 10° NW 19:59:06 88° SW 20:02:52 12° SE
Cosmos 1908 Rocket 3.6 19:56:15 10° N 20:00:42 81° E 20:05:09 10° S
STARLINK-1238 4.0 19:59:37 10° SSW 20:03:30 41° SE 20:07:25 10° ENE
STARLINK-1162 3.6 19:59:54 10° WNW 20:04:03 81° SW 20:07:37 14° SE
ERS-1 Rocket 4.4 20:00:28 10° ESE 20:04:24 24° ENE 20:08:22 10° NNE
Cosmos 1833 Rocket 4.0 20:01:43 10° N 20:06:32 28° NE 20:11:09 11° ESE
STARLINK-1201 3.9 20:04:32 10° SSW 20:08:29 45° SE 20:12:27 10° ENE
Tsikada Rocket 4.0 20:02:47 10° S 20:08:58 72° E 20:15:07 10° NNE
Cosmos 1975 3.3 20:05:11 10° N 20:09:07 45° ENE 20:12:22 14° SSE
Resurs 1-3 4.1 20:05:00 10° S 20:09:19 59° W 20:13:41 10° NNW
Spot 2 Rocket 3.9 20:05:07 12° SE 20:09:36 48° ENE 20:14:26 10° N
STARLINK-1206 3.8 20:09:27 10° SSW 20:13:27 49° SE 20:17:27 10° ENE
Meteor 2-9 Rocket 4.3 20:08:08 10° N 20:13:28 55° ENE 20:18:01 14° SSE
CZ-2C R/B 3.2 20:08:10 10° N 20:13:43 66° WNW 20:19:16 10° SSW
STARLINK-1159 3.7 20:09:53 10° WNW 20:14:01 69° SW 20:17:12 16° SE
Cosmos 389 Rocket 2.7 20:12:55 10° SSW 20:16:21 70° W 20:19:51 10° N
Cosmos 2056 Rocket 3.6 20:12:44 10° S 20:17:42 54° ESE 20:22:41 10° NNE
Cosmos 2242 Rocket 4.2 20:13:22 10° SSW 20:17:43 58° W 20:22:04 10° N
STARLINK-1205 3.7 20:14:22 10° SW 20:18:24 54° SE 20:22:27 10° ENE
Okean 1 3.4 20:14:38 10° S 20:18:40 81° W 20:22:45 10° N
STARLINK-1171 3.8 20:14:54 10° WNW 20:19:00 63° SW 20:22:00 18° SE
STARLINK-1218 3.6 20:19:17 10° SW 20:23:21 59° SE 20:27:26 10° ENE
Iridium 51 4.3 20:19:25 10° S 20:23:35 67° E 20:27:25 10° N
ISS -1.5 20:21:12 10° NW 20:23:56 23° N 20:26:42 10° ENE
STARLINK-1155 3.9 20:19:53 10° WNW 20:23:58 58° SW 20:26:47 19° SE
Cosmos 909 Rocket 4.4 20:17:39 10° NNW 20:25:44 85° ENE 20:31:07 17° SE
STARLINK-1090 4.4 20:22:10 10° NW 20:26:11 45° NNE 20:29:42 13° E
Meteor 1-19 Rocket 4.2 20:20:44 10° S 20:26:16 76° E 20:32:00 10° NNE
Cosmos 44 Rocket 4.1 20:23:37 10° NW 20:28:16 45° WSW 20:32:28 13° S
STARLINK-1254 3.5 20:24:14 10° SW 20:28:20 65° SE 20:32:26 10° ENE
STARLINK-1166 4.0 20:24:53 10° WNW 20:28:55 53° SW 20:31:33 20° SSE
SL-8 R/B 4.2 20:25:10 10° W 20:29:56 64° NNW 20:34:44 10° ENE
Cosmos 2278 Rocket 2.5 20:25:19 10° S 20:30:38 44° ESE 20:36:00 10° NE
STARLINK-1089 4.3 20:27:09 10° NW 20:31:11 48° NNE 20:34:28 15° E
STARLINK-1231 3.5 20:29:12 10° SW 20:33:19 71° SE 20:37:26 10° ENE
STARLINK-1165 4.1 20:29:54 10° WNW 20:33:53 48° SW 20:36:21 21° SSE
Cosmos 1356 3.6 20:31:24 10° NNW 20:34:50 67° W 20:37:23 17° S
Meteor 1-18 Rocket 4.4 20:30:17 10° SSW 20:35:50 76° W 20:41:30 10° N
STARLINK-1107 4.2 20:32:07 10° NW 20:36:10 51° NNE 20:39:15 16° E
Cosmos 1437 Rocket 4.3 20:37:00 18° ESE 20:37:37 18° E 20:40:16 10° NE
STARLINK-1232 3.5 20:34:10 10° SW 20:38:17 77° SE 20:42:26 10° ENE
STARLINK-1169 4.3 20:34:54 10° WNW 20:38:51 44° SW 20:41:08 22° SSE
NOSS 2-3 (E) 3.6 20:35:03 10° SW 20:39:17 87° NW 20:44:16 10° NE
Lacrosse 5 3.3 20:35:37 10° NW 20:40:10 32° NNE 20:44:42 10° E
Terra 3.0 20:38:31 18° ESE 20:41:08 30° ENE 20:45:15 10° N
STARLINK-1066 4.1 20:37:06 10° NW 20:41:11 55° NNE 20:44:03 18° ESE
Cosmos 1844 Rocket 4.4 20:36:10 10° WSW 20:41:22 37° NW 20:46:35 10° N
STARLINK-1208 3.5 20:39:06 10° SW 20:43:15 83° SE 20:47:24 10° ENE
STARLINK-1178 4.4 20:39:54 10° WNW 20:43:48 40° SW 20:45:54 23° SSE
STARLINK-1081 4.0 20:42:04 10° NW 20:46:10 58° NNE 20:48:50 20° ESE
IGS 5A 3.4 20:44:11 21° SSE 20:46:53 89° ENE 20:51:04 10° NNW
STARLINK-1271 3.5 20:44:06 10° SW 20:48:14 89° SE 20:52:24 10° NE
Cosmos 1452 Rocket 4.1 20:45:55 21° SSE 20:48:44 37° ESE 20:53:34 10° NE
STARLINK-1212 4.4 20:46:09 10° W 20:49:06 39° NNW 20:52:03 10° NE
STARLINK-1105 4.4 20:46:38 10° W 20:49:34 39° NNW 20:52:31 10° NE
Cosmos 1515 4.3 20:46:26 10° SSW 20:50:11 55° W 20:53:57 10° N
STARLINK-1247 4.4 20:47:33 10° W 20:50:29 38° NNW 20:53:26 10° NE
STARLINK-1227 4.4 20:48:00 10° W 20:50:56 38° NNW 20:53:52 10° NE
Okean 3 3.4 20:47:56 19° S 20:50:56 71° E 20:55:14 10° NNE
STARLINK-1070 3.9 20:47:01 10° NW 20:51:08 63° NNE 20:53:35 23° ESE
STARLINK-1226 4.4 20:48:52 10° W 20:51:48 38° NNW 20:54:45 10° NE
Cosmos 2142 Rocket 4.5 20:45:47 10° N 20:51:56 73° E 20:56:11 21° SSE
Cosmos 1300 Rocket 3.8 20:47:52 10° N 20:52:15 55° ENE 20:54:26 27° SE
Crew Dragon 3.0 20:51:25 10° NNW 20:52:42 14° NNE 20:54:02 10° NE
STARLINK-1215 4.5 20:49:49 10° W 20:52:45 37° NNW 20:55:42 10° NE
STARLINK-1154 3.6 20:49:05 10° WSW 20:53:13 85° NW 20:57:23 10° NE
USA 245 3.3 20:50:56 21° S 20:53:17 63° WSW 20:56:26 10° NNW
Cosmos 407 Rocket 4.1 20:48:39 10° NNW 20:53:52 55° WSW 20:57:50 17° S
Cosmos 1420 Rocket 4.0 20:51:00 14° S 20:55:24 61° ESE 21:00:32 10° NNE
STARLINK-1069 3.8 20:51:59 10° NW 20:56:07 67° NNE 20:58:21 26° ESE
Cosmos 724 4.5 20:51:42 10° NW 20:57:33 67° WSW 21:01:20 23° SSE
Cosmos 2221 Rocket 3.5 20:54:39 19° S 20:57:48 79° E 21:02:22 10° N
STARLINK-1197 3.7 20:54:03 10° WSW 20:58:12 79° NNW 21:02:21 10° NE
NOSS 2-3 (D) 4.1 20:55:02 10° SW 20:59:15 64° NW 21:04:14 10° NNE
Meteor 1-13 Rocket 4.3 20:56:55 21° S 21:00:38 61° E 21:06:14 10° NNE
STARLINK-1085 3.7 20:56:58 10° NW 21:01:08 73° NNE 21:03:09 29° ESE
Cosmos 371 Rocket 3.6 21:00:02 26° SSE 21:02:22 46° ESE 21:07:02 10° NNE
COSMOS 2406 3.3 20:56:42 10° NNW 21:02:29 76° WSW 21:05:59 25° SSE
STARLINK-1198 3.8 20:59:01 10° WSW 21:03:09 73° NNW 21:07:18 10° NE
Resurs 01 Rocket 3.6 21:00:16 10° SSW 21:03:53 24° W 21:07:31 10° NW
Meteor 2-4 Rocket 3.6 20:58:59 12° SSW 21:04:06 83° W 21:09:29 10° N
USA 215 4.2 20:59:19 10° E 21:05:24 43° NNE 21:11:29 10° NW
SPOT 1/Viking Rocket 3.6 21:02:31 22° S 21:05:53 76° WSW 21:11:04 10° NNW
STARLINK-1086 3.6 21:01:57 10° NW 21:06:07 78° NE 21:07:56 32° ESE
Cosmos 1674 Rocket 4.1 21:04:50 32° SE 21:06:09 41° E 21:10:16 10° NNE
Abrixas rocket 3.4 21:03:59 10° W 21:06:47 37° N 21:09:34 10° ENE
STARLINK-1199 3.9 21:04:03 10° WSW 21:08:10 68° NNW 21:12:19 10° NE
CREW DRAGON DEMO-1 DEB 3.6 21:05:55 10° WNW 21:08:49 36° SW 21:09:01 36° SSW
Meteor 1-4 Rocket 3.9 21:07:03 10° SW 21:10:16 36° WNW 21:13:30 10° N
Sich 1 Rocket 4.4 21:06:32 10° NNW 21:10:58 50° W 21:14:01 19° SSW
STARLINK-1095 3.6 21:06:55 10° NW 21:11:05 84° NE 21:12:42 36° ESE
STARLINK-1210 4.1 21:09:02 10° WSW 21:13:08 63° NNW 21:17:16 10° NE
Cosmos 1378 Rocket 4.2 21:12:35 33° ESE 21:13:37 37° E 21:17:42 10° NNE
NOSS 3 (A) 4.5 21:13:41 36° SW 21:14:36 73° NW 21:17:30 10° NNE
SPOT 5 3.0 21:12:28 30° SSE 21:15:05 84° ENE 21:20:24 10° NNW
STARLINK-1077 3.5 21:11:54 10° NW 21:16:03 90° WNW 21:17:30 40° SE
Nadezhda 4 Rocket 4.3 21:13:37 28° SE 21:16:28 46° E 21:22:17 10° NNE
STARLINK-1219 4.2 21:14:03 10° WSW 21:18:08 59° NNW 21:22:15 10° NE
NOSS 3-1 (A) 4.4 21:13:54 10° WSW 21:19:15 48° NW 21:25:30 10° NNE
STARLINK-1192 4.3 21:21:26 35° ESE 21:21:26 35° ESE 21:24:25 10° ENE
STARLINK-1075 3.5 21:16:53 10° WNW 21:21:02 84° SW 21:22:17 44° SE
Cosmos 1741 Rocket 4.4 21:17:18 10° NNW 21:22:24 51° ENE 21:24:31 32° ESE
STARLINK-1211 4.3 21:19:03 10° WSW 21:23:06 55° NNW 21:27:12 10° NE
Cosmos 2279 Rocket 4.1 21:18:33 10° N 21:24:48 77° W 21:28:35 25° S
STARLINK-1244 4.1 21:26:11 39° ESE 21:26:11 39° ESE 21:29:24 10° ENE
STARLINK-1093 3.5 21:21:52 10° WNW 21:26:01 77° SW 21:27:04 48° SE
Cosmos 2297 4.3 21:25:26 32° SE 21:26:44 36° ESE 21:31:54 10° NE
STARLINK-1245 4.5 21:24:05 10° WSW 21:28:07 51° NNW 21:32:11 10° NE
Okean 2 Rocket 3.6 21:23:49 10° NNW 21:28:08 52° W 21:30:13 28° SSW
STARLINK-1138 3.9 21:30:58 44° ESE 21:30:58 44° ESE 21:34:25 10° ENE
STARLINK-1074 3.6 21:26:51 10° WNW 21:30:59 71° SW 21:31:51 52° SSE
BREEZE-M DEB (TANK) 4.0 21:18:00 10° WNW 21:32:35 79° NNE 21:35:38 25° ESE
STARLINK-1203 3.7 21:32:36 51° SE 21:32:36 51° SE 21:36:41 10° ENE
ERBS 2.2 21:32:41 32° SW 21:34:03 80° NW 21:37:22 10° NE
STARLINK-1143 3.8 21:35:45 50° ESE 21:35:45 50° ESE 21:39:25 10° ENE
Cosmos 1850 Rocket 4.1 21:31:12 10° NNW 21:36:33 70° ENE 21:38:31 39° SE
STARLINK-1241 3.6 21:40:29 57° SE 21:40:29 57° SE 21:44:25 10° ENE
STARLINK-1088 3.7 21:36:49 10° WNW 21:40:55 60° SW 21:41:24 55° S
Cosmos 2151 Rocket 4.1 21:36:44 10° NNW 21:41:10 56° W 21:42:53 34° SSW
Cosmos 2082 Rocket 2.2 21:36:20 10° NNW 21:42:06 88° ENE 21:44:18 40° SSE
ERS-1 Rocket 3.7 21:40:28 26° SSW 21:42:54 46° W 21:47:45 10° NNW
Cosmos 1110 Rocket 4.3 21:43:28 40° SE 21:44:20 44° ESE 21:49:15 10° NNE
STARLINK-1239 3.5 21:45:15 63° SE 21:45:18 63° SE 21:49:24 10° ENE
STARLINK-1115 3.7 21:41:49 10° WNW 21:45:52 55° SW 21:46:10 53° SSW
Okean 1 Rocket 3.0 21:41:24 10° N 21:45:54 74° E 21:46:51 53° SSE
SeaSat 1 2.4 21:42:05 10° NE 21:46:59 61° ESE 21:48:18 44° S
STARLINK-1126 4.4 21:44:03 10° NW 21:48:04 47° NNE 21:49:44 30° E
Aureole 2 Rocket 3.7 21:51:13 28° NE 21:51:13 28° NE 21:52:59 10° NNE
STARLINK-1240 3.4 21:50:02 66° SSE 21:50:17 68° SE 21:54:25 10° ENE
Cosmos 1833 Rocket 3.2 21:45:18 10° NW 21:50:41 49° WSW 21:52:51 32° SSW
STARLINK-1076 3.9 21:46:49 10° WNW 21:50:50 50° SW 21:50:57 50° SW
Cosmos 304 Rocket 3.7 21:50:10 51° SSE 21:51:10 65° ESE 21:55:55 10° NNE
SL-4 R/B 1.8 21:49:55 10° NNW 21:52:33 55° NW 21:52:33 55° NW
STARLINK-1082 4.3 21:49:05 10° NW 21:53:08 50° NNE 21:54:34 33° E
Cosmos 1805 3.6 21:49:27 10° N 21:53:16 50° ENE 21:53:26 49° E
Okean 2 4.2 21:53:51 36° E 21:53:51 36° E 21:57:31 10° NNE
Meteor 1-15 Rocket 4.3 21:47:46 10° NNW 21:53:44 83° W 21:56:05 39° S
EO 1 Del DPAF 4.1 21:50:34 10° NNE 21:53:37 36° ENE 21:53:37 36° ENE
Cosmos 1092 Rocket 4.1 21:52:19 39° SSE 21:54:23 57° E 22:00:23 10° NNE
Cosmos 332 Rocket 3.9 21:52:44 31° SSW 21:55:03 76° WNW 21:59:59 10° NNE
STARLINK-1216 3.4 21:54:48 66° SSW 21:55:15 74° SE 21:59:24 10° ENE
STARLINK-1092 4.1 21:51:48 10° WNW 21:55:44 46° SW 21:55:44 46° SW
Cosmos 2369 Rocket 3.7 21:57:13 20° E 21:57:13 20° E 22:01:05 10° NE
STARLINK-1100 4.2 21:54:03 10° NW 21:58:07 53° NNE 21:59:20 38° E
Cosmos 1455 Rocket 4.2 21:54:51 10° NNE 21:58:41 29° ENE 21:59:07 28° E
STARLINK-1237 3.4 21:59:35 62° SW 22:00:13 81° SE 22:04:23 10° ENE
Cosmos 1066 Rocket 4.1 21:58:19 36° SSW 22:00:36 80° W 22:06:00 10° N
STARLINK-1080 4.3 21:56:51 10° WNW 22:00:32 41° SW 22:00:32 41° SW
ISS -3.1 21:57:57 10° NW 22:01:15 52° NNE 22:01:21 51° NNE
Cosmos 1378 3.1 22:02:30 72° ENE 22:02:30 72° ENE 22:06:03 10° NNE
STARLINK-1083 4.1 21:59:01 10° NW 22:03:06 57° NNE 22:04:08 43° E
Cosmos 1842 4.3 22:05:25 33° ENE 22:05:25 33° ENE 22:08:30 10° NNE
STARLINK-1202 3.5 22:04:21 55° SW 22:05:13 87° SE 22:09:23 10° ENE
STARLINK-1090 4.5 22:01:51 10° WNW 22:05:19 37° WSW 22:05:19 37° WSW
Cosmos 1943 Rocket 2.9 22:07:36 34° ESE 22:07:45 34° ESE 22:12:44 10° NE
Cosmos 1331 Rocket 3.9 22:07:06 54° SSE 22:08:03 65° ESE 22:13:10 10° NNE
STARLINK-1125 3.9 22:03:59 10° NW 22:08:06 61° NNE 22:08:54 49° E
SL-8 R/B 4.5 22:08:14 10° WNW 22:12:57 51° N 22:17:39 10° E
STARLINK-1109 3.8 22:08:57 10° NW 22:13:05 65° NNE 22:13:41 56° ENE
Cosmos 1437 Rocket 4.3 22:12:22 24° WSW 22:13:39 30° WNW 22:17:02 10° N
Cosmos 2278 Rocket 3.9 22:09:52 10° WSW 22:14:52 31° NW 22:19:54 10° N
STARLINK-1246 3.6 22:13:54 44° WSW 22:15:09 81° NNW 22:19:19 10° NE
Cosmos 2195 Rocket 4.5 22:14:48 44° SSE 22:16:54 74° E 22:23:12 10° NNE
STARLINK-1091 3.7 22:13:55 10° NW 22:18:03 70° NNE 22:18:27 65° ENE
Terra 3.0 22:17:23 27° SW 22:18:47 32° W 22:23:04 10° NNW
ALOS 2 3.7 22:19:22 31° E 22:19:57 32° ENE 22:23:52 10° N
STARLINK-1224 3.7 22:18:39 38° WSW 22:20:08 75° NNW 22:24:18 10° NE
STARLINK-1072 3.6 22:18:54 10° NW 22:23:04 76° NE 22:23:15 74° ENE
Lacrosse 5 1.8 22:18:27 10° NW 22:23:28 67° SW 22:24:01 62° S
Spot 4 3.8 22:23:24 60° SE 22:24:12 74° ENE 22:29:04 10° N
STARLINK-1225 3.8 22:23:26 34° WSW 22:25:08 70° NNW 22:29:17 10° NE
Thor Agena Rocket 3.5 22:21:21 10° NNE 22:26:41 86° WNW 22:28:06 51° SSW
Cosmos 1428 Rocket 4.5 22:26:15 47° SSE 22:28:04 71° E 22:34:21 10° NNE
STARLINK-1096 3.5 22:23:54 10° NW 22:28:03 82° NNE 22:28:03 82° NNE
SL-4 R/B 4.2 22:31:54 11° N 22:31:54 11° N 22:32:05 10° N
STARLINK-1230 3.9 22:28:13 30° WSW 22:30:07 65° NNW 22:34:15 10° NE
BREEZE-M DEB (TANK) 3.7 22:16:43 10° WSW 22:30:54 74° NNW 22:34:38 10° ENE
STARLINK-1079 3.6 22:28:51 10° NW 22:32:48 80° NW 22:32:48 80° NW
EXPRESS MD2 4.2 22:30:08 17° WSW 22:33:24 80° NNW 22:41:56 10° ENE
Cosmos 1544 Rocket 4.0 22:30:20 10° N 22:34:33 49° ENE 22:34:36 49° E
STARLINK-1243 4.1 22:32:59 26° WSW 22:35:06 60° NNW 22:39:13 10° NE
Cosmos 1726 4.4 22:34:14 10° NNE 22:36:25 16° ENE 22:36:25 16° ENE
STARLINK-1116 3.7 22:33:50 10° WNW 22:37:35 72° WNW 22:37:35 72° WNW
Cosmos 1766 3.8 22:34:43 10° NNW 22:38:27 52° W 22:38:27 52° W
SL-27 R/B 3.9 22:36:40 10° N 22:39:37 31° NE 22:39:37 31° NE
STARLINK-1236 4.2 22:37:45 23° W 22:40:06 56° NNW 22:44:12 10° NE
Abrixas rocket 4.3 22:39:52 10° WNW 22:41:15 22° NW 22:41:15 22° NW
Cosmos 1461 3.4 22:43:04 51° W 22:43:44 58° NW 22:48:02 10° NNE
Cosmos 1953 4.0 22:40:32 10° NNE 22:43:45 23° ENE 22:43:45 23° ENE
Cosmos 1553 Rocket 4.1 22:37:32 10° N 22:43:50 64° E 22:45:31 47° SE
Cosmos 1271 Rocket 3.9 22:46:32 35° ENE 22:46:32 35° ENE 22:49:20 10° NNE
Cosmos 2026 Rocket 4.0 22:45:54 46° SSW 22:47:53 77° W 22:54:15 10° N
STARLINK-1094 4.0 22:43:49 10° WNW 22:47:10 55° WNW 22:47:10 55° WNW
USA 215 3.1 22:45:48 44° SE 22:48:07 79° SW 22:54:42 10° NW
STARLINK-1269 4.5 22:47:16 18° W 22:50:04 49° NNW 22:54:07 10° NE
Aureole 3 Rocket 4.0 22:46:42 10° N 22:52:05 81° E 22:54:05 49° SSE
Cosmos 1758 3.8 22:48:25 10° N 22:52:04 53° ENE 22:52:04 53° ENE
STARLINK-1117 4.2 22:48:48 10° WNW 22:51:57 48° W 22:51:57 48° W
Cosmos 1707 3.7 22:53:56 39° ENE 22:53:56 39° ENE 22:56:55 10° NNE
NOSS 2-2 (D) 3.6 22:57:13 58° NNW 22:57:13 58° NNW 23:00:46 10° NNE
Cosmos 1900 4.4 22:52:42 10° NNW 22:57:45 71° NE 22:58:31 60° ESE
Cosmos 1733 4.3 22:54:18 10° NNW 22:57:26 37° WNW 22:57:26 37° WNW
STARLINK-1078 4.4 22:53:47 10° WNW 22:56:43 42° W 22:56:43 42° W
Cosmos 1975 Rocket 3.8 23:00:54 42° W 23:01:25 44° WNW 23:05:41 10° N
NOSS 3-4 (A) 4.1 23:10:06 35° ESE 23:10:06 35° ESE 23:15:35 10° NE
STARLINK-1106 4.4 23:06:03 10° NW 23:10:05 49° NNE 23:10:51 42° ENE
NOSS 3-4 (C) 4.1 23:10:13 35° ESE 23:10:13 35° ESE 23:15:41 10° NE
Cosmos 1242 Rocket 3.4 23:11:36 50° NNW 23:11:36 50° NNW 23:14:31 10° N
Meteor 2-10 4.1 23:08:16 10° N 23:13:18 59° ENE 23:13:53 55° ESE
STARLINK-1112 4.3 23:11:02 10° NW 23:15:06 52° NNE 23:15:39 48° ENE
ATLAS 3B R/B 4.1 23:11:01 10° NNW 23:17:04 33° NE 23:23:16 10° E
Cosmos 2266 Rocket 4.1 23:16:09 50° SE 23:17:24 60° E 23:23:22 10° NNE
ATLAS CENTAUR R/B 3.8 23:20:47 14° E 23:20:47 14° E 23:21:57 10° ENE
STARLINK-1128 4.1 23:16:00 10° NW 23:20:06 56° NNE 23:20:26 54° NE
Cosmos 1470 3.5 23:17:29 10° NNW 23:20:37 47° NW 23:20:37 47° NW
CENTAUR R/B 3.5 23:13:27 10° NNW 23:21:26 65° NE 23:27:41 21° SE
Cosmos 1503 Rocket 4.4 23:18:29 10° NNW 23:23:43 56° ENE 23:24:51 46° ESE
STARLINK-1113 4.0 23:20:58 10° NW 23:25:04 60° NNE 23:25:12 59° NE
Cosmos 2082 Rocket 4.3 23:22:40 10° WNW 23:25:19 13° W 23:26:09 13° WSW
STARLINK-1119 3.9 23:25:56 10° NW 23:29:59 64° NNE 23:29:59 64° NNE
BREEZE-M DEB (TANK) 3.7 23:28:06 10° WNW 23:31:31 54° NNE 23:36:38 10° E
Helios 1A 3.1 23:33:57 67° NW 23:33:57 67° NW 23:37:44 10° NNW
STARLINK-1114 3.9 23:30:56 10° NW 23:34:46 66° N 23:34:46 66° N
Cosmos 883 Rocket 4.5 23:29:27 10° N 23:35:37 71° E 23:37:08 51° SE
Meteor 2-19 Rocket 4.4 23:34:37 58° S 23:35:57 82° E 23:42:07 10° N
Cosmos 968 Rocket 3.3 23:32:27 10° NNW 23:37:39 82° WSW 23:38:01 75° SSW
ATLAS 2AS CENTAUR R/B 3.1 23:35:54 46° S 23:38:18 65° ESE 23:46:11 10° NE
Cosmos 1354 Rocket 4.2 23:33:21 10° NNW 23:38:38 67° ENE 23:39:37 55° ESE
STARLINK-1130 (DARKSAT) 3.9 23:35:53 10° NW 23:39:32 64° NNW 23:39:32 64° NNW
Cosmos 1908 4.3 23:36:47 10° N 23:40:02 37° ENE 23:40:02 37° ENE
Cosmos 2369 Rocket 2.5 23:38:58 45° WSW 23:40:31 62° WNW 23:46:09 10° NNE
STARLINK-1084 4.0 23:40:51 10° NW 23:44:19 59° NW 23:44:19 59° NW
Cosmos 1025 Rocket 3.7 23:45:35 42° WNW 23:45:35 42° WNW 23:49:38 10° N
Cosmos 1486 Rocket 4.2 23:41:28 10° NNW 23:46:38 53° WSW 23:46:50 53° WSW
CZ-2D R/B 4.4 23:45:22 10° ENE 23:47:17 12° E 23:48:55 10° ESE
NOSS 3-2 (A) 4.1 23:39:56 10° NW 23:47:29 65° WSW 23:50:12 44° S
Cosmos 1726 Rocket 4.4 23:45:18 10° N 23:49:22 40° ENE 23:49:40 39° E
STARLINK-1098 4.1 23:45:51 10° NW 23:49:07 54° NW 23:49:07 54° NW
Cosmos 2315 Rocket 4.0 23:44:19 10° N 23:50:33 75° E 23:52:12 51° SSE
Cosmos 1943 Rocket 3.3 23:49:05 26° WSW 23:51:25 37° NW 23:56:37 10° NNE
Helios 1B rocket 2.7 23:49:08 10° NNE 23:52:51 59° ENE 23:52:51 59° ENE
Meteor 2-5 Rocket 4.2 23:52:49 42° ESE 23:53:48 46° E 23:59:05 10° NNE
KORONAS-FOTON 4.5 23:55:12 50° NE 23:55:12 50° NE 23:58:18 10° NNE
STARLINK-1123 4.3 23:50:49 10° NW 23:53:53 48° WNW 23:53:53 48° WNW
ALOS 2 4.1 23:56:46 25° W 23:56:46 25° W 23:59:57 10° NW
